Location: Pasadena
(34.1478°N, 118.1436°W)
Time: 15:37:32
(UTC-07:00)

ISS - Visible Passes

Search period start: 21 October 2019 00:00
Search period end: 31 October 2019 00:00
Orbit: 411 x 421 km, 51.6° (Epoch: 21 October)

Date Brightness Start Highest point End Pass type
(mag) Time Alt. Az. Time Alt. Az. Time Alt. Az.
21 Oct -0.8 06:18:31 10° S 06:20:51 18° SE 06:23:12 10° E visible
23 Oct -3.2 06:16:54 10° SW 06:20:13 61° SE 06:23:32 10° NE visible
24 Oct -2.0 05:29:52 18° S 05:31:43 30° SE 05:34:42 10° ENE visible
25 Oct -0.6 04:44:18 14° ESE 04:44:18 14° ESE 04:45:25 10° E visible
25 Oct -3.1 06:17:16 15° WSW 06:19:44 38° NW 06:22:55 10° NNE visible
26 Oct -3.6 05:31:26 65° N 05:31:26 65° N 05:34:27 10° NE visible
27 Oct -0.5 04:45:24 13° ENE 04:45:24 13° ENE 04:45:48 10° NE visible
27 Oct -1.8 06:18:20 14° NW 06:19:28 16° NNW 06:21:38 10° N visible
28 Oct -1.7 05:32:07 18° N 05:32:07 18° N 05:33:30 10° NNE visible
